Theta_e
319 319 319 320 321 321 320 321 320 322 322 321 321 321 321 321 321 321 321 321 322 321 321 320 320 320 322 322 322 322 322 324 325 323 335 342 346 348 350 350 351 349 348 346
320 320 320 320 320 320 320 320 320 321 322 321 321 321 322 322 322 322 322 322 322 322 322 322 322 322 322 322 322 321 321 322 323 323 323 343 347 349 349 345 350 350 350 349
321 321 322 320 320 320 320 321 321 320 321 322 322 322 322 322 322 322 322 322 322 322 321 322 322 322 321 321 321 322 321 321 322 326 325 324 336 342 347 348 349 350 352 350
321 321 321 321 320 320 321 321 321 320 320 320 321 322 324 323 324 325 324 322 322 322 322 322 322 321 321 320 321 320 321 322 323 324 323 329 325 330 341 347 347 351 350 351
320 321 321 320 320 320 319 320 320 320 321 321 321 322 322 324 325 325 326 324 323 323 323 322 321 321 320 320 320 321 321 322 322 323 323 327 326 323 328 329 340 346 351 350
320 319 320 320 320 320 320 319 320 320 321 323 322 323 323 325 326 327 326 324 324 322 321 319 320 320 319 319 319 319 320 322 323 323 323 326 327 326 325 324 337 333 346 349
318 319 320 320 320 320 320 320 321 322 323 324 323 324 326 329 327 326 325 324 323 321 320 320 319 319 318 318 317 319 319 320 321 321 324 324 326 327 329 330 322 328 342 343
322 323 320 319 319 320 320 321 323 326 327 326 326 326 326 327 326 325 323 323 322 320 320 319 318 317 317 317 317 318 318 319 321 322 322 326 325 325 327 330 332 328 326 334
322 322 321 322 322 322 321 321 322 324 325 328 326 325 326 326 326 326 324 322 319 319 319 318 317 317 316 316 317 317 317 319 321 322 324 326 328 330 328 327 331 332 337 333
320 323 322 322 322 323 321 321 322 323 332 329 325 325 326 326 325 323 323 321 319 318 317 317 317 316 316 317 318 317 319 320 321 323 322 322 324 325 331 333 327 330 332 338
321 323 323 321 323 324 324 322 322 323 325 329 329 325 326 324 323 323 323 321 319 317 317 316 316 316 317 317 317 317 318 319 320 321 320 322 322 325 326 331 333 334 332 336
319 322 323 321 320 321 322 324 323 328 328 328 329 329 325 326 323 323 320 318 318 317 317 317 316 316 317 317 317 316 317 318 319 320 321 323 322 323 324 327 329 326 328 332
321 322 324 322 322 321 322 322 322 322 324 323 325 324 322 323 322 321 321 321 320 318 318 317 316 317 318 317 317 316 316 317 318 318 319 320 322 321 322 323 323 318 329 331
315 320 322 323 323 323 323 323 322 322 324 324 323 322 321 321 322 322 320 318 317 317 317 317 318 318 317 317 317 317 316 316 316 317 318 317 318 322 319 321 322 324 326 329
318 319 318 318 318 318 319 319 319 321 321 322 320 320 320 321 321 319 316 318 318 318 318 317 317 317 317 317 316 316 315 315 314 315 317 316 317 319 319 319 319 320 322 325
317 320 318 318 317 317 318 318 318 319 318 318 318 318 318 316 317 318 318 317 316 316 316 315 314 314 315 314 313 314 314 315 315 314 315 314 314 317 318 316 317 319 318 317
316 317 318 319 317 319 321 319 318 318 318 317 317 318 318 319 318 316 316 315 315 314 314 313 313 312 311 310 309 309 309 311 313 314 314 314 314 314 317 317 315 317 316 318
315 314 316 320 318 320 318 317 317 317 316 316 318 318 318 317 315 314 314 313 313 312 311 311 311 310 309 308 308 307 308 309 310 312 313 313 314 313 313 317 316 316 315 318
314 315 316 318 320 318 317 318 319 318 318 318 317 316 315 314 313 313 312 312 310 310 309 309 308 307 306 305 304 304 305 305 305 308 309 311 312 313 313 316 316 314 314 317
315 314 314 317 321 321 319 318 316 316 316 316 315 314 314 312 314 314 310 309 309 308 307 307 305 304 303 302 302 303 302 303 306 305 305 308 310 312 312 314 315 315 314 314
317 315 315 315 316 316 317 317 315 316 317 314 313 312 311 312 311 309 308 308 307 307 305 304 303 301 301 301 300 301 302 303 303 304 304 306 308 310 311 312 314 315 315 314
317 319 319 318 321 320 315 316 317 315 313 312 311 310 309 308 308 308 307 306 306 304 302 300 299 298 298 298 299 298 299 300 301 302 304 304 305 307 310 312 313 315 316 315
320 318 319 318 318 316 314 314 313 312 311 310 309 308 308 308 307 306 306 304 302 299 299 297 297 296 296 297 296 296 297 298 300 301 301 304 303 306 308 310 312 314 315 312
315 314 316 315 315 315 314 313 312 310 310 309 308 307 307 306 305 305 303 300 298 297 296 295 295 295 295 295 296 296 297 298 299 302 301 302 305 304 306 308 311 313 314 313
313 313 314 314 314 313 312 311 310 310 308 307 308 307 304 305 304 302 299 298 296 295 294 294 294 294 295 295 295 296 297 298 299 301 302 303 304 304 306 308 309 312 313 313
312 314 316 316 311 311 311 310 309 307 307 308 306 304 304 303 301 298 297 295 294 293 293 293 294 294 295 295 296 296 297 298 299 301 301 304 304 305 305 306 308 310 312 312
Wind_Speed
16 11 13 17 18 18 20 20 15 10 14 16 17 14 16 18 18 18 18 19 20 20 19 17 16 14 9 8 7 8 11 15 19 19 20 25 29 30 32 34 37 34 39 41
13 14 16 17 16 18 18 18 14 16 16 13 13 15 15 17 19 22 20 20 18 16 16 14 11 2 4 9 12 15 16 17 21 23 22 21 25 28 33 31 37 41 39 40
16 16 18 16 16 16 14 14 15 17 16 16 14 17 17 20 24 26 26 20 17 15 11 4 0 7 10 12 13 18 20 22 19 20 21 24 29 29 31 30 34 37 42 42
15 17 18 11 13 15 17 16 17 17 15 13 15 15 19 14 17 19 21 17 15 16 14 4 2 6 9 12 14 18 18 17 17 19 23 24 26 29 25 36 34 36 40 44
15 17 16 15 19 14 14 14 15 15 14 15 17 12 15 18 19 18 16 24 20 18 9 4 5 6 13 15 18 17 17 21 25 22 23 23 29 34 32 35 32 41 41 45
19 22 12 10 12 15 15 16 14 14 13 15 18 18 16 17 18 11 7 22 10 7 1 3 4 8 12 15 16 19 21 20 16 21 25 25 27 32 35 38 31 40 37 45
14 18 18 13 12 14 7 8 9 13 14 15 20 18 12 11 11 7 5 9 7 4 2 5 8 10 14 18 21 18 20 25 22 23 23 26 30 32 36 37 40 42 37 45
12 14 16 12 15 14 16 14 11 18 14 16 21 15 14 14 13 6 4 8 1 1 4 8 11 13 19 20 20 21 21 24 23 20 25 26 32 34 38 38 39 39 46 48
9 16 16 13 16 13 13 14 12 9 12 13 14 22 20 18 11 2 1 4 5 7 10 12 15 18 19 22 21 20 27 27 24 19 22 24 25 31 36 40 40 42 44 48
8 11 11 15 18 17 13 10 7 7 5 12 12 15 10 9 13 6 4 3 8 14 13 16 17 21 18 18 18 21 20 17 20 20 23 27 29 35 31 35 39 45 49 46
9 8 9 15 12 13 13 12 11 10 12 9 12 10 12 12 6 8 11 16 16 16 17 21 24 20 17 17 17 19 22 22 22 26 26 28 27 34 36 33 33 44 47 45
2 4 9 18 18 17 17 17 10 5 7 10 10 15 15 12 13 15 11 16 19 22 21 22 22 22 14 17 16 18 19 19 20 20 23 25 27 27 30 36 34 28 35 45
3 1 8 11 15 14 15 16 14 13 13 18 14 13 10 9 15 19 23 29 27 24 24 23 23 18 19 21 19 20 19 18 19 19 20 26 25 28 27 30 29 22 30 36
4 10 13 11 12 3 4 12 16 15 9 13 16 22 19 17 19 19 21 27 24 19 12 12 18 19 19 28 25 23 23 22 18 24 21 24 29 31 29 24 19 22 28 25
2 10 15 17 20 23 23 20 18 19 21 20 20 24 21 20 19 20 24 15 19 20 21 22 17 21 16 19 23 24 30 30 25 25 24 25 27 34 37 26 25 26 22 14
4 4 11 18 21 23 24 23 22 23 22 23 23 23 19 19 17 22 23 22 23 24 27 28 26 24 23 22 23 23 29 26 23 28 29 29 31 32 37 32 34 27 27 26
1 4 7 13 17 15 16 22 22 21 19 13 13 15 18 17 17 20 22 25 28 25 27 28 28 29 30 35 38 39 40 40 37 34 25 31 30 35 34 35 27 35 28 22
4 7 3 6 15 11 8 6 7 10 8 10 15 13 13 18 24 27 28 28 24 28 32 34 35 36 37 38 40 42 40 36 37 38 36 36 31 31 34 34 28 30 27 18
14 7 3 4 6 14 18 6 9 4 9 15 12 15 20 27 32 28 27 31 35 36 38 40 39 38 40 46 51 52 51 51 48 42 44 38 38 35 34 33 31 30 30 25
13 11 4 3 4 3 5 1 5 9 11 14 16 16 20 27 15 14 33 37 38 43 41 39 43 48 51 49 45 45 46 42 36 36 42 44 41 40 35 33 34 30 30 31
5 4 9 7 5 8 5 9 11 7 6 21 22 22 25 17 18 36 40 43 40 37 45 48 44 48 48 43 44 44 42 41 40 38 39 37 37 38 38 35 32 31 28 32
8 4 5 7 6 5 14 10 8 10 17 22 25 27 29 32 35 38 40 40 43 49 48 49 46 47 44 40 37 41 40 39 38 38 36 36 41 44 31 30 33 32 26 22
3 6 4 4 3 4 7 2 5 11 18 22 25 28 31 34 36 40 40 45 45 47 44 43 42 44 41 37 38 39 38 34 34 33 38 34 38 36 45 28 27 31 26 27
3 4 4 3 5 5 7 6 17 19 21 24 26 28 31 35 37 38 43 44 45 44 44 43 42 41 42 37 36 35 33 30 29 29 29 34 31 37 37 30 24 30 30 27
9 5 7 10 13 12 11 21 22 23 23 26 27 29 32 33 36 40 43 44 46 46 44 42 40 40 40 36 33 30 26 22 26 26 24 25 28 30 34 30 24 29 28 24
9 4 2 2 10 9 16 20 21 23 24 26 29 33 31 32 41 42 43 44 44 44 43 41 39 38 38 36 33 28 21 19 20 20 24 19 21 26 27 33 22 21 19 22
Wind_Direction
208 232 224 228 227 246 265 282 296 282 229 195 208 225 244 250 248 247 224 227 230 233 235 232 240 242 236 229 252 294 295 297 283 258 251 256 250 252 247 240 230 230 238 242
246 221 246 243 242 244 245 266 277 284 293 293 273 263 265 263 262 260 259 253 249 249 239 223 213 148 313 311 305 305 302 298 295 284 255 245 251 254 254 252 243 231 231 242
233 245 219 236 264 261 255 268 268 264 275 270 254 259 258 254 252 252 254 252 251 258 255 194 275 329 320 310 305 302 298 293 284 278 281 263 248 249 250 247 247 240 234 235
250 245 263 215 244 261 262 241 250 259 266 266 264 269 258 265 246 226 227 224 238 238 228 203 287 297 298 303 295 297 287 297 301 293 285 276 266 258 253 250 245 248 240 234
262 245 256 260 261 245 263 270 273 268 267 271 263 265 266 260 252 248 229 199 201 222 194 193 250 292 296 299 296 298 291 285 290 299 286 285 274 267 264 263 253 244 244 240
290 278 300 292 288 251 253 270 266 262 266 257 255 254 260 260 261 267 342 174 163 126 80 296 292 285 291 291 300 298 302 301 286 293 293 291 286 277 273 257 259 255 249 243
281 283 289 257 254 281 226 255 259 252 243 249 245 245 255 327 330 349 227 147 116 106 286 287 269 280 295 296 292 296 296 295 298 300 293 290 283 282 276 268 262 250 253 247
275 270 246 255 260 288 260 247 248 275 282 290 309 287 283 309 321 219 219 276 354 272 254 275 280 298 294 291 294 302 299 295 293 292 294 288 290 286 275 270 265 261 252 246
277 272 279 270 290 259 265 263 296 326 304 280 267 283 286 284 341 334 211 243 282 251 263 268 285 285 285 298 294 297 299 288 281 291 309 299 295 294 286 269 264 258 260 253
273 300 305 305 294 290 272 276 270 261 282 275 267 278 276 357 315 16 303 241 259 260 266 274 270 275 286 288 290 293 293 307 300 306 301 298 301 295 281 278 267 262 262 257
273 249 274 293 277 248 261 242 251 255 249 257 278 270 304 359 299 311 294 297 301 300 287 276 270 277 277 281 284 288 298 296 300 301 299 305 306 302 296 276 272 267 266 260
292 276 261 270 282 270 242 271 257 254 255 266 270 270 282 301 335 344 303 294 284 274 277 282 287 290 276 277 276 282 287 288 289 300 300 302 301 306 306 279 277 296 271 270
322 281 276 273 244 242 257 241 258 270 251 264 270 275 292 207 265 273 280 272 271 279 276 288 289 282 272 269 274 275 276 282 285 290 289 294 299 300 303 301 300 302 283 266
337 264 261 270 298 189 269 304 304 287 262 269 260 282 289 294 297 294 297 302 304 309 319 303 320 312 293 302 314 313 295 275 283 284 287 285 294 290 294 307 315 292 265 287
326 268 271 279 287 288 283 270 248 253 262 264 277 276 285 290 291 284 289 348 333 320 315 320 315 304 290 282 293 300 287 282 281 276 281 282 292 293 291 291 309 324 293 296
152 249 261 275 273 272 272 273 271 266 268 272 278 281 279 295 328 350 343 345 332 321 317 324 340 334 323 327 327 320 307 309 301 280 276 278 275 288 287 298 279 300 322 264
258 285 296 271 280 294 264 256 261 264 265 291 303 338 340 347 360 350 328 323 319 330 324 322 318 314 312 309 309 305 301 295 284 280 288 276 269 270 282 287 291 266 285 292
235 276 286 289 284 267 295 270 291 286 290 305 352 342 342 333 326 321 315 315 340 327 318 313 309 307 304 301 297 297 291 289 286 269 269 277 276 270 272 275 285 267 272 273
201 216 262 254 273 290 282 321 8 4 310 37 357 341 329 327 326 311 319 331 323 317 314 310 306 301 297 296 296 294 289 282 274 273 269 267 273 275 271 263 268 276 265 248
191 204 199 277 258 272 11 222 312 325 284 13 345 333 331 328 311 310 321 316 313 310 306 308 305 300 298 295 292 287 284 278 272 270 270 267 258 265 266 270 258 263 258 249
180 192 220 231 241 264 15 329 314 271 327 335 336 331 325 318 310 312 313 309 307 311 312 309 303 299 295 293 292 286 281 275 276 268 261 259 259 260 263 262 262 250 254 242
184 214 205 227 232 247 5 352 345 355 336 338 332 326 322 314 312 310 310 315 317 313 310 306 303 300 298 295 291 288 283 280 277 268 265 259 252 251 252 257 254 245 246 249
228 206 179 210 286 58 260 132 18 350 340 331 325 323 319 317 314 316 318 316 313 311 308 308 305 303 302 298 296 291 287 284 277 272 263 263 249 247 242 268 247 234 235 253
264 49 255 271 63 347 301 5 357 346 336 331 326 325 322 320 319 320 318 315 315 314 313 312 311 307 305 304 300 293 290 283 274 273 263 260 241 248 242 246 246 229 231 236
269 251 279 265 55 315 346 350 343 334 336 329 327 329 327 326 326 322 319 318 317 317 318 317 314 311 309 310 304 299 293 284 272 267 266 249 246 240 239 232 247 223 223 229
351 343 358 336 10 349 337 327 334 337 334 333 333 330 331 331 327 324 321 320 321 322 324 323 320 317 314 314 311 307 291 279 271 272 252 250 246 231 240 227 237 227 208 222